Location: *
(46.4000°N, 12.6667°E)
Time: 16:35:38
(UTC+00:00)

Envisat - Pass Details

Date: 12 December 2021
Orbit: 764 x 766 km, 98.2° (Epoch: 16 January)

Event Time Altitude Azimuth Distance (km) Brightness Sun altitude
Rises 03:53:27 0° 17° (NNE) 3,243 6.4 -28.3°
Reaches altitude 10° 03:55:49 10° 21° (NNE) 2,312 5.6 -27.9°
Maximum altitude 04:00:50 56° 100° (E) 907 3.6 -27.0°
Drops below altitude 10° 04:05:48 10° 179° (S) 2,294 5.5 -26.1°
Sets 04:08:08 0° 183° (S) 3,215 6.3 -25.7°
